Time,TemperatureF,DewpointF,PressureIn,WindDirection,WindDirectionDegrees,WindSpeedMPH,WindSpeedGustMPH,Humidity,HourlyPrecipIn,Conditions,Clouds,dailyrainin,SoftwareType,DateUTC
2013-01-09 00:22:00,24.0,-99.9,30.40,NE,37,-999.0,-999.0,-999,-99.99,,,-99.99,,2013-01-09 05:22:00,
2013-01-09 00:33:00,24.0,-99.9,30.40,NE,37,-999.0,-999.0,-999,-99.99,,,-99.99,,2013-01-09 05:33:00,
2013-01-09 00:43:00,24.0,-99.9,30.40,NE,37,-999.0,-999.0,-999,-99.99,,,-99.99,,2013-01-09 05:43:00,
2013-01-09 00:53:00,23.0,-99.9,30.39,NE,37,-999.0,-999.0,-999,-99.99,,,-99.99,,2013-01-09 05:53:00,
2013-01-09 01:22:00,23.0,-99.9,30.39,NE,37,-999.0,-999.0,-999,-99.99,,,-99.99,,2013-01-09 06:22:00,
2013-01-09 01:32:00,23.0,-99.9,30.39,NE,37,-999.0,-999.0,-999,-99.99,,,-99.99,,2013-01-09 06:32:00,
2013-01-09 01:43:00,23.0,-99.9,30.39,NE,37,-999.0,-999.0,-999,-99.99,,,-99.99,,2013-01-09 06:43:00,
2013-01-09 01:53:00,22.0,-99.9,30.39,NE,37,-999.0,-999.0,-999,-99.99,,,-99.99,,2013-01-09 06:53:00,
2013-01-09 02:22:00,22.0,-99.9,30.39,NE,37,-999.0,-999.0,-999,-99.99,,,-99.99,,2013-01-09 07:22:00,
2013-01-09 02:32:00,22.0,-99.9,30.39,NE,37,-999.0,-999.0,-999,-99.99,,,-99.99,,2013-01-09 07:32:00,
2013-01-09 02:43:00,22.0,-99.9,30.39,NE,37,-999.0,-999.0,-999,-99.99,,,-99.99,,2013-01-09 07:43:00,
2013-01-09 02:53:00,22.0,-99.9,30.39,NE,37,-999.0,-999.0,-999,-99.99,,,-99.99,,2013-01-09 07:53:00,
2013-01-09 03:22:00,22.0,-99.9,30.39,NE,37,-999.0,-999.0,-999,-99.99,,,-99.99,,2013-01-09 08:22:00,
2013-01-09 03:32:00,22.0,-99.9,30.39,NE,37,-999.0,-999.0,-999,-99.99,,,-99.99,,2013-01-09 08:32:00,
2013-01-09 03:43:00,22.0,-99.9,30.39,NE,37,-999.0,-999.0,-999,-99.99,,,-99.99,,2013-01-09 08:43:00,
2013-01-09 03:53:00,21.0,-99.9,30.37,NE,37,-999.0,-999.0,-999,-99.99,,,-99.99,,2013-01-09 08:53:00,
2013-01-09 04:22:00,21.0,-99.9,30.37,NE,37,-999.0,-999.0,-999,-99.99,,,-99.99,,2013-01-09 09:22:00,
2013-01-09 04:32:00,21.0,-99.9,30.37,NE,37,-999.0,-999.0,-999,-99.99,,,-99.99,,2013-01-09 09:32:00,
2013-01-09 04:42:00,21.0,-99.9,30.37,NE,37,-999.0,-999.0,-999,-99.99,,,-99.99,,2013-01-09 09:42:00,
2013-01-09 04:53:00,20.0,-99.9,30.37,NE,37,-999.0,-999.0,-999,-99.99,,,-99.99,,2013-01-09 09:53:00,
2013-01-09 05:22:00,20.0,-99.9,30.37,NE,37,-999.0,-999.0,-999,-99.99,,,-99.99,,2013-01-09 10:22:00,
2013-01-09 05:32:00,20.0,-99.9,30.37,NE,37,-999.0,-999.0,-999,-99.99,,,-99.99,,2013-01-09 10:32:00,
2013-01-09 05:42:00,20.0,-99.9,30.37,NE,37,-999.0,-999.0,-999,-99.99,,,-99.99,,2013-01-09 10:42:00,
2013-01-09 05:53:00,20.0,-99.9,30.36,NE,37,-999.0,-999.0,-999,-99.99,,,-99.99,,2013-01-09 10:53:00,
2013-01-09 06:22:00,20.0,-99.9,30.36,NE,37,-999.0,-999.0,-999,-99.99,,,-99.99,,2013-01-09 11:22:00,
2013-01-09 06:33:00,20.0,-99.9,30.36,NE,37,-999.0,-999.0,-999,-99.99,,,-99.99,,2013-01-09 11:33:00,
2013-01-09 06:43:00,20.0,-99.9,30.36,NE,37,-999.0,-999.0,-999,-99.99,,,-99.99,,2013-01-09 11:43:00,
2013-01-09 06:53:00,20.0,-99.9,30.37,NE,37,-999.0,-999.0,-999,-99.99,,,-99.99,,2013-01-09 11:53:00,
2013-01-09 07:23:00,20.0,-99.9,30.37,NE,37,-999.0,-999.0,-999,-99.99,,,-99.99,,2013-01-09 12:23:00,
2013-01-09 07:33:00,20.0,-99.9,30.37,NE,37,-999.0,-999.0,-999,-99.99,,,-99.99,,2013-01-09 12:33:00,
2013-01-09 07:43:00,20.0,-99.9,30.37,NE,37,-999.0,-999.0,-999,-99.99,,,-99.99,,2013-01-09 12:43:00,
2013-01-09 07:53:00,20.0,-99.9,30.38,NE,37,-999.0,-999.0,-999,-99.99,,,-99.99,,2013-01-09 12:53:00,
2013-01-09 08:23:00,20.0,-99.9,30.38,NE,37,-999.0,-999.0,-999,-99.99,,,-99.99,,2013-01-09 13:23:00,
2013-01-09 08:33:00,20.0,-99.9,30.38,NE,37,-999.0,-999.0,-999,-99.99,,,-99.99,,2013-01-09 13:33:00,
2013-01-09 08:43:00,20.0,-99.9,30.38,NE,37,-999.0,-999.0,-999,-99.99,,,-99.99,,2013-01-09 13:43:00,
2013-01-09 08:53:00,24.0,-99.9,30.39,NE,37,-999.0,-999.0,-999,-99.99,,,-99.99,,2013-01-09 13:53:00,
2013-01-09 09:23:00,24.0,-99.9,30.39,NE,37,-999.0,-999.0,-999,-99.99,,,-99.99,,2013-01-09 14:23:00,
2013-01-09 09:33:00,24.0,-99.9,30.39,NE,37,-999.0,-999.0,-999,-99.99,,,-99.99,,2013-01-09 14:33:00,
2013-01-09 09:43:00,24.0,-99.9,30.39,NE,37,-999.0,-999.0,-999,-99.99,,,-99.99,,2013-01-09 14:43:00,
2013-01-09 09:53:00,28.0,-99.9,30.35,NE,37,-999.0,-999.0,-999,-99.99,,,-99.99,,2013-01-09 14:53:00,
2013-01-09 10:23:00,28.0,-99.9,30.35,NE,37,-999.0,-999.0,-999,-99.99,,,-99.99,,2013-01-09 15:23:00,
2013-01-09 10:33:00,28.0,-99.9,30.35,NE,37,-999.0,-999.0,-999,-99.99,,,-99.99,,2013-01-09 15:33:00,
2013-01-09 10:43:00,28.0,-99.9,30.35,NE,37,-999.0,-999.0,-999,-99.99,,,-99.99,,2013-01-09 15:43:00,
2013-01-09 10:53:00,33.0,-99.9,30.32,NE,37,-999.0,-999.0,-999,-99.99,,,-99.99,,2013-01-09 15:53:00,
2013-01-09 11:23:00,33.0,-99.9,30.32,NE,37,-999.0,-999.0,-999,-99.99,,,-99.99,,2013-01-09 16:23:00,
2013-01-09 11:34:00,33.0,-99.9,30.32,NE,37,-999.0,-999.0,-999,-99.99,,,-99.99,,2013-01-09 16:34:00,
2013-01-09 11:43:00,33.0,-99.9,30.32,NE,37,-999.0,-999.0,-999,-99.99,,,-99.99,,2013-01-09 16:43:00,
2013-01-09 11:53:00,35.0,-99.9,30.29,NE,37,-999.0,-999.0,-999,-99.99,,,-99.99,,2013-01-09 16:53:00,
2013-01-09 12:23:00,35.0,-99.9,30.29,NE,37,-999.0,-999.0,-999,-99.99,,,-99.99,,2013-01-09 17:23:00,
2013-01-09 12:33:00,35.0,-99.9,30.29,NE,37,-999.0,-999.0,-999,-99.99,,,-99.99,,2013-01-09 17:33:00,
2013-01-09 12:43:00,35.0,-99.9,30.29,NE,37,-999.0,-999.0,-999,-99.99,,,-99.99,,2013-01-09 17:43:00,
2013-01-09 12:53:00,37.0,-99.9,30.27,South,173,-999.0,5.0,-999,-99.99,,,-99.99,,2013-01-09 17:53:00,
2013-01-09 13:24:00,37.0,-99.9,30.27,South,173,-999.0,5.0,-999,-99.99,,,-99.99,,2013-01-09 18:24:00,
2013-01-09 13:33:00,37.0,-99.9,30.27,South,173,-999.0,5.0,-999,-99.99,,,-99.99,,2013-01-09 18:33:00,
2013-01-09 13:53:00,38.0,-99.9,30.20,SW,236,-999.0,-999.0,-999,-99.99,,,-99.99,,2013-01-09 18:53:00,
2013-01-09 14:23:00,38.0,-99.9,30.20,SW,236,-999.0,-999.0,-999,-99.99,,,-99.99,,2013-01-09 19:23:00,
2013-01-09 14:33:00,38.0,-99.9,30.20,SW,236,-999.0,-999.0,-999,-99.99,,,-99.99,,2013-01-09 19:33:00,
2013-01-09 14:43:00,38.0,-99.9,30.20,SW,236,-999.0,-999.0,-999,-99.99,,,-99.99,,2013-01-09 19:43:00,
2013-01-09 14:53:00,37.0,-99.9,30.16,SSW,195,-999.0,-999.0,-999,-99.99,,,-99.99,,2013-01-09 19:53:00,
2013-01-09 15:23:00,37.0,-99.9,30.16,SSW,195,-999.0,-999.0,-999,-99.99,,,-99.99,,2013-01-09 20:23:00,
2013-01-09 15:33:00,37.0,-99.9,30.16,SSW,195,-999.0,-999.0,-999,-99.99,,,-99.99,,2013-01-09 20:33:00,
2013-01-09 15:43:00,37.0,-99.9,30.16,SSW,195,-999.0,-999.0,-999,-99.99,,,-99.99,,2013-01-09 20:43:00,
2013-01-09 15:53:00,37.0,-99.9,30.16,SSW,206,-999.0,-999.0,-999,-99.99,,,-99.99,,2013-01-09 20:53:00,
2013-01-09 16:23:00,37.0,-99.9,30.16,SSW,206,-999.0,-999.0,-999,-99.99,,,-99.99,,2013-01-09 21:23:00,
2013-01-09 16:33:00,37.0,-99.9,30.16,SSW,206,-999.0,-999.0,-999,-99.99,,,-99.99,,2013-01-09 21:33:00,
2013-01-09 16:43:00,37.0,-99.9,30.16,SSW,206,-999.0,-999.0,-999,-99.99,,,-99.99,,2013-01-09 21:43:00,
2013-01-09 16:53:00,37.0,-99.9,30.19,SSW,206,-999.0,-999.0,-999,-99.99,,,-99.99,,2013-01-09 21:53:00,
2013-01-09 17:23:00,37.0,-99.9,30.19,SSW,206,-999.0,-999.0,-999,-99.99,,,-99.99,,2013-01-09 22:23:00,
2013-01-09 17:33:00,37.0,-99.9,30.19,SSW,206,-999.0,-999.0,-999,-99.99,,,-99.99,,2013-01-09 22:33:00,
2013-01-09 17:43:00,37.0,-99.9,30.19,SSW,206,-999.0,-999.0,-999,-99.99,,,-99.99,,2013-01-09 22:43:00,
2013-01-09 17:53:00,35.0,-99.9,30.19,WSW,249,-999.0,-999.0,-999,-99.99,,,-99.99,,2013-01-09 22:53:00,
2013-01-09 18:33:00,35.0,-99.9,30.19,WSW,249,-999.0,-999.0,-999,-99.99,,,-99.99,,2013-01-09 23:33:00,
2013-01-09 18:43:00,35.0,-99.9,30.19,WSW,249,-999.0,-999.0,-999,-99.99,,,-99.99,,2013-01-09 23:43:00,
2013-01-09 18:53:00,34.0,-99.9,30.22,WSW,249,-999.0,-999.0,-999,-99.99,,,-99.99,,2013-01-09 23:53:00,
2013-01-09 19:33:00,34.0,-99.9,30.22,WSW,249,-999.0,-999.0,-999,-99.99,,,-99.99,,2013-01-10 00:33:00,
2013-01-09 19:43:00,34.0,-99.9,30.22,WSW,249,-999.0,-999.0,-999,-99.99,,,-99.99,,2013-01-10 00:43:00,
2013-01-09 19:53:00,33.0,-99.9,30.22,SSW,198,-999.0,-999.0,-999,-99.99,,,-99.99,,2013-01-10 00:53:00,
2013-01-09 20:22:00,33.0,-99.9,30.22,SSW,198,-999.0,-999.0,-999,-99.99,,,-99.99,,2013-01-10 01:22:00,
2013-01-09 20:33:00,33.0,-99.9,30.22,SSW,198,-999.0,-999.0,-999,-99.99,,,-99.99,,2013-01-10 01:33:00,
2013-01-09 20:43:00,33.0,-99.9,30.22,SSW,198,-999.0,-999.0,-999,-99.99,,,-99.99,,2013-01-10 01:43:00,
2013-01-09 20:53:00,34.0,-99.9,30.21,WSW,242,-999.0,-999.0,-999,-99.99,,,-99.99,,2013-01-10 01:53:00,
2013-01-09 21:22:00,34.0,-99.9,30.21,WSW,242,-999.0,-999.0,-999,-99.99,,,-99.99,,2013-01-10 02:22:00,
2013-01-09 21:33:00,34.0,-99.9,30.21,WSW,242,-999.0,-999.0,-999,-99.99,,,-99.99,,2013-01-10 02:33:00,
2013-01-09 21:43:00,34.0,-99.9,30.21,WSW,242,-999.0,-999.0,-999,-99.99,,,-99.99,,2013-01-10 02:43:00,
2013-01-09 21:53:00,33.0,-99.9,30.22,SSE,157,-999.0,-999.0,-999,-99.99,,,-99.99,,2013-01-10 02:53:00,
2013-01-09 22:22:00,33.0,-99.9,30.22,SSE,157,-999.0,-999.0,-999,-99.99,,,-99.99,,2013-01-10 03:22:00,
2013-01-09 22:33:00,33.0,-99.9,30.22,SSE,157,-999.0,-999.0,-999,-99.99,,,-99.99,,2013-01-10 03:33:00,
2013-01-09 22:43:00,33.0,-99.9,30.22,SSE,157,-999.0,-999.0,-999,-99.99,,,-99.99,,2013-01-10 03:43:00,
2013-01-09 22:53:00,32.0,-99.9,30.25,SSW,200,-999.0,-999.0,-999,-99.99,,,-99.99,,2013-01-10 03:53:00,
2013-01-09 23:22:00,32.0,-99.9,30.25,SSW,200,-999.0,-999.0,-999,-99.99,,,-99.99,,2013-01-10 04:22:00,
2013-01-09 23:32:00,32.0,-99.9,30.25,SSW,200,-999.0,-999.0,-999,-99.99,,,-99.99,,2013-01-10 04:32:00,
2013-01-09 23:43:00,32.0,-99.9,30.25,SSW,200,-999.0,-999.0,-999,-99.99,,,-99.99,,2013-01-10 04:43:00,
2013-01-09 23:53:00,30.0,-99.9,30.26,SSW,200,-999.0,-999.0,-999,-99.99,,,-99.99,,2013-01-10 04:53:00,